Wetterdaten: Woche 09.10.17 - 15.10.17 (KW41)
Datum Zeit Temp. Aussen Temp. o. S. +5cm Feuchte Auss BlattFeu 1 Luftdruck Regen Sonnenschein Regendauer Solar Windben Empfang
09.10.2017 00:00 9,9 C 9,3 C 8,8 C 95 % 14 lf 1019,8 hPa 0,0 l/m 0,00 h 0,00 h 2 W/m 1,8 km/h (1 Bft) 96,02 %
09.10.2017 01:00 9,8 C 8,9 C 8,3 C 95 % 13 lf 1019,6 hPa 0,0 l/m 0,00 h 0,00 h 0 W/m 1,5 km/h (1 Bft) 96,87 %
09.10.2017 02:00 9,7 C 8,8 C 8,2 C 95 % 12 lf 1019,7 hPa 0,0 l/m 0,00 h 0,00 h 5 W/m 2,1 km/h (1 Bft) 95,94 %
09.10.2017 03:00 9,5 C 8,3 C 8,3 C 95 % 11 lf 1019,6 hPa 0,0 l/m 0,00 h 0,00 h 5 W/m 0,0 km/h (0 Bft) 96,51 %
09.10.2017 04:00 9,4 C 8,7 C 8,3 C 95 % 7 lf 1019,5 hPa 0,0 l/m 0,00 h 0,00 h 0 W/m 2,3 km/h (1 Bft) 98,39 %
09.10.2017 05:00 9,3 C 8,7 C 8,2 C 96 % 1 lf 1019,5 hPa 0,0 l/m 0,00 h 0,00 h 3 W/m 1,9 km/h (1 Bft) 96,13 %
09.10.2017 06:00 9,0 C 8,6 C 8,0 C 96 % 0 lf 1019,3 hPa 0,0 l/m 0,00 h 0,00 h 0 W/m 1,4 km/h (1 Bft) 95,33 %
09.10.2017 07:00 9,1 C 9,1 C 8,4 C 96 % 0 lf 1019,2 hPa 0,0 l/m 0,00 h 0,00 h 6 W/m 3,5 km/h (1 Bft) 98,95 %
09.10.2017 08:00 9,5 C 9,9 C 9,0 C 97 % 4 lf 1019,1 hPa 0,0 l/m 0,00 h 0,20 h 14 W/m 0,3 km/h (0 Bft) 94,97 %
09.10.2017 09:00 10,1 C 10,0 C 9,2 C 97 % 15 lf 1019,4 hPa 1,6 l/m 0,00 h 0,73 h 27 W/m 0,8 km/h (0 Bft) 96,73 %
09.10.2017 10:00 10,6 C 11,0 C 10,4 C 98 % 15 lf 1019,3 hPa 0,2 l/m 0,00 h 0,00 h 111 W/m 7,4 km/h (2 Bft) 96,46 %
09.10.2017 11:00 11,3 C 11,6 C 11,1 C 98 % 15 lf 1019,4 hPa 0,0 l/m 0,00 h 0,00 h 89 W/m 4,6 km/h (1 Bft) 95,71 %
09.10.2017 12:00 12,0 C 12,5 C 11,9 C 98 % 9 lf 1019,3 hPa 0,0 l/m 0,00 h 0,00 h 120 W/m 5,6 km/h (1 Bft) 97,61 %
09.10.2017 13:00 13,1 C 15,3 C 13,6 C 98 % 0 lf 1018,8 hPa 0,0 l/m 0,17 h 0,00 h 210 W/m 8,0 km/h (2 Bft) 96,46 %
09.10.2017 14:00 14,1 C 16,0 C 13,8 C 95 % 0 lf 1018,2 hPa 0,0 l/m 0,00 h 0,00 h 172 W/m 13,0 km/h (3 Bft) 94,51 %
09.10.2017 15:00 14,5 C 15,3 C 13,6 C 90 % 0 lf 1017,8 hPa 0,0 l/m 0,00 h 0,00 h 113 W/m 14,2 km/h (3 Bft) 99,42 %
09.10.2017 16:00 14,5 C 14,6 C 13,3 C 88 % 0 lf 1017,5 hPa 0,0 l/m 0,00 h 0,00 h 58 W/m 8,4 km/h (2 Bft) 96,23 %
09.10.2017 17:00 14,3 C 14,1 C 12,9 C 90 % 0 lf 1017,1 hPa 0,0 l/m 0,00 h 0,00 h 37 W/m 4,0 km/h (1 Bft) 94,97 %
09.10.2017 18:00 14,1 C 13,6 C 12,4 C 91 % 0 lf 1017,1 hPa 0,0 l/m 0,00 h 0,00 h 15 W/m 4,6 km/h (1 Bft) 98,17 %
09.10.2017 19:00 13,6 C 12,8 C 11,6 C 91 % 2 lf 1017,1 hPa 0,0 l/m 0,00 h 0,17 h 5 W/m 2,9 km/h (1 Bft) 96,65 %
09.10.2017 20:00 13,1 C 12,0 C 11,0 C 92 % 14 lf 1017,0 hPa 0,0 l/m 0,00 h 0,17 h 0 W/m 7,2 km/h (2 Bft) 94,74 %
09.10.2017 21:00 12,8 C 12,2 C 10,7 C 93 % 2 lf 1016,8 hPa 0,0 l/m 0,00 h 0,00 h 0 W/m 7,6 km/h (2 Bft) 97,37 %
09.10.2017 22:00 12,7 C 12,3 C 10,9 C 93 % 0 lf 1016,6 hPa 0,0 l/m 0,00 h 0,00 h 0 W/m 7,3 km/h (2 Bft) 96,09 %
09.10.2017 23:00 12,7 C 12,8 C 11,1 C 93 % 0 lf 1016,4 hPa 0,0 l/m 0,00 h 0,00 h 0 W/m 9,3 km/h (2 Bft) 96,93 %
10.10.2017 00:00 12,8 C 12,8 C 11,4 C 93 % 0 lf 1015,9 hPa 0,0 l/m 0,00 h 0,00 h 0 W/m 10,5 km/h (2 Bft) 96,30 %
10.10.2017 01:00 12,7 C 12,3 C 11,2 C 91 % 0 lf 1015,4 hPa 0,0 l/m 0,00 h 0,00 h 0 W/m 8,7 km/h (2 Bft) 95,37 %
10.10.2017 02:00 12,6 C 12,3 C 11,1 C 91 % 0 lf 1015,1 hPa 0,0 l/m 0,00 h 0,00 h 0 W/m 11,5 km/h (2 Bft) 98,36 %
10.10.2017 03:00 12,8 C 12,8 C 11,7 C 91 % 0 lf 1014,7 hPa 0,0 l/m 0,00 h 0,00 h 0 W/m 17,5 km/h (3 Bft) 96,51 %
10.10.2017 04:00 12,9 C 12,7 C 11,7 C 91 % 0 lf 1014,3 hPa 0,0 l/m 0,00 h 0,00 h 0 W/m 12,8 km/h (3 Bft) 95,37 %
10.10.2017 05:00 12,8 C 12,2 C 11,5 C 93 % 0 lf 1014,0 hPa 0,0 l/m 0,00 h 0,00 h 0 W/m 15,0 km/h (3 Bft) 96,85 %
10.10.2017 06:00 12,7 C 12,2 C 11,2 C 95 % 11 lf 1013,8 hPa 0,2 l/m 0,00 h 0,33 h 0 W/m 12,4 km/h (3 Bft) 97,56 %
10.10.2017 07:00 12,8 C 12,2 C 11,2 C 96 % 15 lf 1013,9 hPa 0,2 l/m 0,00 h 0,33 h 4 W/m 13,1 km/h (3 Bft) 94,42 %
10.10.2017 08:00 12,9 C 12,3 C 11,7 C 97 % 15 lf 1014,3 hPa 0,0 l/m 0,00 h 0,03 h 10 W/m 15,3 km/h (3 Bft) 97,72 %
10.10.2017 09:00 13,1 C 12,9 C 11,8 C 98 % 13 lf 1014,8 hPa 0,0 l/m 0,00 h 0,07 h 32 W/m 14,8 km/h (3 Bft) 96,14 %
10.10.2017 10:00 13,5 C 14,2 C 12,6 C 97 % 1 lf 1015,0 hPa 0,0 l/m 0,00 h 0,00 h 108 W/m 17,6 km/h (3 Bft) 97,31 %
10.10.2017 11:00 14,4 C 17,2 C 14,5 C 95 % 0 lf 1015,1 hPa 0,0 l/m 0,60 h 0,00 h 264 W/m 18,7 km/h (3 Bft) 95,80 %
10.10.2017 12:00 15,1 C 16,5 C 15,2 C 90 % 0 lf 1015,2 hPa 0,0 l/m 0,33 h 0,00 h 199 W/m 20,7 km/h (4 Bft) 96,79 %
10.10.2017 13:00 16,0 C 18,3 C 16,6 C 84 % 0 lf 1015,2 hPa 0,0 l/m 0,70 h 0,00 h 447 W/m 26,0 km/h (4 Bft) 96,37 %
10.10.2017 14:00 16,3 C 17,0 C 16,0 C 82 % 3 lf 1015,1 hPa 0,0 l/m 0,33 h 0,30 h 256 W/m 20,8 km/h (4 Bft) 97,40 %
10.10.2017 15:00 15,7 C 16,1 C 14,3 C 86 % 4 lf 1015,1 hPa 0,0 l/m 0,00 h 0,30 h 157 W/m 21,7 km/h (4 Bft) 94,37 %
10.10.2017 16:00 15,9 C 16,6 C 15,7 C 85 % 0 lf 1015,0 hPa 0,0 l/m 0,20 h 0,00 h 120 W/m 22,5 km/h (4 Bft) 98,14 %
10.10.2017 17:00 15,8 C 15,6 C 14,4 C 87 % 0 lf 1015,1 hPa 0,0 l/m 0,00 h 0,00 h 35 W/m 15,2 km/h (3 Bft) 97,08 %
10.10.2017 18:00 15,6 C 15,4 C 14,2 C 88 % 0 lf 1015,4 hPa 0,0 l/m 0,33 h 0,00 h 25 W/m 13,2 km/h (3 Bft) 94,22 %
10.10.2017 19:00 15,3 C 15,0 C 13,9 C 90 % 0 lf 1015,4 hPa 0,0 l/m 0,00 h 0,00 h 5 W/m 19,2 km/h (3 Bft) 97,58 %
10.10.2017 20:00 15,1 C 15,0 C 13,8 C 91 % 0 lf 1015,6 hPa 0,0 l/m 0,00 h 0,00 h 0 W/m 21,5 km/h (4 Bft) 98,22 %
10.10.2017 21:00 14,9 C 14,5 C 13,4 C 91 % 0 lf 1015,6 hPa 0,0 l/m 0,00 h 0,00 h 0 W/m 20,1 km/h (4 Bft) 93,40 %
10.10.2017 22:00 14,7 C 14,4 C 13,1 C 91 % 0 lf 1015,9 hPa 0,0 l/m 0,00 h 0,00 h 0 W/m 19,7 km/h (3 Bft) 97,79 %
10.10.2017 23:00 14,5 C 14,1 C 12,7 C 91 % 0 lf 1016,1 hPa 0,0 l/m 0,00 h 0,00 h 0 W/m 17,4 km/h (3 Bft) 96,08 %
11.10.2017 00:00 14,1 C 13,6 C 12,2 C 92 % 0 lf 1015,8 hPa 0,0 l/m 0,00 h 0,00 h 0 W/m 19,1 km/h (3 Bft) 93,42 %
11.10.2017 01:00 13,7 C 13,2 C 12,0 C 92 % 0 lf 1015,7 hPa 0,0 l/m 0,00 h 0,00 h 0 W/m 14,9 km/h (3 Bft) 95,83 %
11.10.2017 02:00 13,4 C 13,1 C 12,0 C 93 % 0 lf 1015,6 hPa 0,0 l/m 0,00 h 0,00 h 0 W/m 17,1 km/h (3 Bft) 96,59 %
11.10.2017 03:00 13,6 C 13,1 C 12,0 C 92 % 0 lf 1015,4 hPa 0,0 l/m 0,00 h 0,00 h 0 W/m 19,2 km/h (3 Bft) 96,47 %
11.10.2017 04:00 13,2 C 12,8 C 11,6 C 91 % 0 lf 1015,4 hPa 0,0 l/m 0,00 h 0,00 h 0 W/m 20,9 km/h (4 Bft) 98,79 %
11.10.2017 05:00 13,2 C 13,0 C 11,8 C 91 % 0 lf 1015,4 hPa 0,0 l/m 0,00 h 0,00 h 0 W/m 20,4 km/h (4 Bft) 93,66 %
11.10.2017 06:00 13,5 C 13,3 C 12,2 C 90 % 0 lf 1015,1 hPa 0,0 l/m 0,00 h 0,00 h 0 W/m 21,2 km/h (4 Bft) 97,68 %
11.10.2017 07:00 13,8 C 13,8 C 12,5 C 90 % 0 lf 1015,2 hPa 0,0 l/m 0,00 h 0,00 h 0 W/m 21,9 km/h (4 Bft) 97,52 %
11.10.2017 08:00 14,0 C 14,1 C 12,9 C 89 % 0 lf 1015,4 hPa 0,0 l/m 0,10 h 0,00 h 39 W/m 24,3 km/h (4 Bft) 94,61 %
11.10.2017 09:00 14,5 C 15,2 C 14,1 C 86 % 0 lf 1015,5 hPa 0,0 l/m 0,47 h 0,00 h 116 W/m 28,5 km/h (4 Bft) 96,23 %
11.10.2017 10:00 15,3 C 16,5 C 15,2 C 83 % 0 lf 1015,6 hPa 0,0 l/m 0,57 h 0,00 h 170 W/m 22,0 km/h (4 Bft) 98,79 %
11.10.2017 11:00 15,3 C 15,6 C 14,5 C 83 % 0 lf 1015,7 hPa 0,0 l/m 0,00 h 0,00 h 88 W/m 21,3 km/h (4 Bft) 94,38 %
11.10.2017 12:00 15,1 C 15,3 C 14,4 C 84 % 0 lf 1015,7 hPa 0,0 l/m 0,00 h 0,00 h 79 W/m 22,4 km/h (4 Bft) 97,15 %
11.10.2017 13:00 15,0 C 15,1 C 14,3 C 84 % 0 lf 1015,4 hPa 0,0 l/m 0,00 h 0,00 h 77 W/m 21,9 km/h (4 Bft) 96,94 %
11.10.2017 14:00 14,8 C 14,9 C 13,9 C 84 % 0 lf 1015,2 hPa 0,0 l/m 0,00 h 0,00 h 57 W/m 19,8 km/h (3 Bft) 96,30 %
11.10.2017 15:00 14,8 C 15,2 C 14,2 C 84 % 0 lf 1014,7 hPa 0,0 l/m 0,00 h 0,00 h 76 W/m 18,7 km/h (3 Bft) 96,80 %
11.10.2017 16:00 15,3 C 15,9 C 14,9 C 83 % 0 lf 1014,2 hPa 0,0 l/m 0,00 h 0,00 h 93 W/m 18,2 km/h (3 Bft) 96,01 %
11.10.2017 17:00 15,6 C 15,7 C 14,6 C 82 % 0 lf 1013,8 hPa 0,0 l/m 0,00 h 0,00 h 53 W/m 14,7 km/h (3 Bft) 96,66 %
11.10.2017 18:00 15,4 C 14,9 C 13,7 C 84 % 0 lf 1013,6 hPa 0,0 l/m 0,00 h 0,00 h 15 W/m 9,4 km/h (2 Bft) 99,26 %
11.10.2017 19:00 15,1 C 14,9 C 13,6 C 86 % 0 lf 1013,5 hPa 0,0 l/m 0,00 h 0,00 h 0 W/m 14,9 km/h (3 Bft) 93,10 %
11.10.2017 20:00 15,3 C 14,9 C 13,6 C 84 % 0 lf 1013,7 hPa 0,0 l/m 0,00 h 0,00 h 0 W/m 21,5 km/h (4 Bft) 97,86 %
11.10.2017 21:00 15,2 C 15,0 C 13,6 C 84 % 0 lf 1013,8 hPa 0,0 l/m 0,00 h 0,00 h 0 W/m 16,6 km/h (3 Bft) 98,22 %
11.10.2017 22:00 15,1 C 15,0 C 13,7 C 82 % 0 lf 1013,7 hPa 0,0 l/m 0,00 h 0,00 h 0 W/m 17,2 km/h (3 Bft) 94,52 %
11.10.2017 23:00 15,4 C 15,0 C 13,8 C 81 % 0 lf 1013,5 hPa 0,0 l/m 0,00 h 0,00 h 0 W/m 19,9 km/h (4 Bft) 96,58 %
12.10.2017 00:00 15,3 C 14,9 C 13,3 C 82 % 0 lf 1013,1 hPa 0,0 l/m 0,00 h 0,00 h 0 W/m 19,1 km/h (3 Bft) 98,43 %
12.10.2017 01:00 15,4 C 15,3 C 13,9 C 83 % 0 lf 1012,8 hPa 0,0 l/m 0,00 h 0,00 h 0 W/m 25,7 km/h (4 Bft) 94,67 %
12.10.2017 02:00 15,7 C 15,6 C 14,0 C 83 % 0 lf 1012,6 hPa 0,0 l/m 0,00 h 0,00 h 0 W/m 25,8 km/h (4 Bft) 97,22 %
12.10.2017 03:00 15,4 C 14,5 C 12,9 C 87 % 7 lf 1012,6 hPa 0,0 l/m 0,00 h 0,60 h 0 W/m 32,1 km/h (5 Bft) 96,44 %
12.10.2017 04:00 14,8 C 14,4 C 13,1 C 90 % 0 lf 1012,9 hPa 0,0 l/m 0,00 h 0,07 h 0 W/m 25,9 km/h (4 Bft) 97,01 %
12.10.2017 05:00 14,7 C 14,3 C 12,9 C 91 % 0 lf 1013,4 hPa 0,0 l/m 0,00 h 0,00 h 0 W/m 20,3 km/h (4 Bft) 98,09 %
12.10.2017 06:00 14,5 C 14,3 C 12,6 C 90 % 1 lf 1014,5 hPa 0,0 l/m 0,00 h 0,03 h 0 W/m 19,6 km/h (3 Bft) 94,60 %
12.10.2017 07:00 13,8 C 13,0 C 11,5 C 85 % 0 lf 1016,0 hPa 0,0 l/m 0,00 h 0,00 h 8 W/m 21,4 km/h (4 Bft) 96,75 %
12.10.2017 08:00 12,9 C 12,6 C 11,1 C 88 % 0 lf 1017,1 hPa 0,0 l/m 0,37 h 0,00 h 43 W/m 14,8 km/h (3 Bft) 98,58 %
12.10.2017 09:00 13,0 C 14,3 C 12,4 C 89 % 0 lf 1018,4 hPa 0,0 l/m 0,73 h 0,00 h 130 W/m 17,2 km/h (3 Bft) 94,52 %
12.10.2017 10:00 14,0 C 17,8 C 14,2 C 86 % 0 lf 1019,2 hPa 0,0 l/m 0,80 h 0,00 h 258 W/m 23,6 km/h (4 Bft) 95,93 %
12.10.2017 11:00 15,1 C 19,6 C 14,6 C 81 % 0 lf 1019,8 hPa 0,0 l/m 0,57 h 0,00 h 301 W/m 26,8 km/h (4 Bft) 97,97 %
12.10.2017 12:00 15,8 C 19,5 C 16,4 C 75 % 0 lf 1020,7 hPa 0,0 l/m 1,00 h 0,00 h 368 W/m 26,2 km/h (4 Bft) 94,89 %
12.10.2017 13:00 16,7 C 20,8 C 16,4 C 70 % 0 lf 1021,0 hPa 0,0 l/m 1,00 h 0,00 h 394 W/m 29,4 km/h (5 Bft) 96,16 %
12.10.2017 14:00 16,8 C 20,5 C 16,2 C 69 % 0 lf 1021,1 hPa 0,0 l/m 0,80 h 0,00 h 322 W/m 25,4 km/h (4 Bft) 98,36 %
12.10.2017 15:00 16,9 C 19,6 C 16,3 C 69 % 0 lf 1021,4 hPa 0,0 l/m 0,80 h 0,00 h 290 W/m 23,0 km/h (4 Bft) 95,34 %
12.10.2017 16:00 17,2 C 19,5 C 16,2 C 67 % 0 lf 1021,6 hPa 0,0 l/m 0,97 h 0,00 h 246 W/m 22,7 km/h (4 Bft) 96,16 %
12.10.2017 17:00 16,4 C 16,6 C 14,4 C 69 % 0 lf 1021,9 hPa 0,0 l/m 0,73 h 0,00 h 107 W/m 13,9 km/h (3 Bft) 97,86 %
12.10.2017 18:00 15,3 C 13,7 C 11,8 C 73 % 0 lf 1022,3 hPa 0,0 l/m 0,07 h 0,00 h 21 W/m 4,4 km/h (1 Bft) 95,92 %
12.10.2017 19:00 13,6 C 11,4 C 9,6 C 80 % 0 lf 1022,4 hPa 0,0 l/m 0,00 h 0,00 h 3 W/m 3,8 km/h (1 Bft) 96,37 %
12.10.2017 20:00 12,2 C 11,2 C 9,1 C 85 % 0 lf 1022,5 hPa 0,0 l/m 0,00 h 0,00 h 0 W/m 6,4 km/h (2 Bft) 96,16 %
12.10.2017 21:00 11,4 C 10,6 C 9,0 C 88 % 0 lf 1022,7 hPa 0,0 l/m 0,00 h 0,00 h 0 W/m 6,4 km/h (2 Bft) 97,86 %
12.10.2017 22:00 11,0 C 10,4 C 8,4 C 90 % 0 lf 1022,9 hPa 0,0 l/m 0,00 h 0,00 h 0 W/m 6,5 km/h (2 Bft) 96,09 %
12.10.2017 23:00 10,6 C 10,1 C 8,1 C 91 % 0 lf 1022,8 hPa 0,0 l/m 0,00 h 0,00 h 0 W/m 9,0 km/h (2 Bft) 95,44 %
13.10.2017 00:00 10,6 C 10,3 C 8,7 C 92 % 0 lf 1022,8 hPa 0,0 l/m 0,00 h 0,00 h 0 W/m 7,3 km/h (2 Bft) 96,84 %
13.10.2017 01:00 10,4 C 10,4 C 8,7 C 93 % 0 lf 1022,8 hPa 0,0 l/m 0,00 h 0,00 h 0 W/m 8,4 km/h (2 Bft) 97,89 %
13.10.2017 02:00 10,5 C 10,0 C 8,2 C 93 % 0 lf 1023,1 hPa 0,0 l/m 0,00 h 0,00 h 0 W/m 6,8 km/h (2 Bft) 95,30 %
13.10.2017 03:00 10,3 C 10,3 C 8,4 C 94 % 0 lf 1023,1 hPa 0,0 l/m 0,00 h 0,00 h 0 W/m 8,3 km/h (2 Bft) 94,85 %
13.10.2017 04:00 10,7 C 10,5 C 8,9 C 95 % 0 lf 1023,0 hPa 0,0 l/m 0,00 h 0,00 h 0 W/m 4,3 km/h (1 Bft) 99,15 %
13.10.2017 05:00 10,7 C 10,7 C 9,7 C 95 % 0 lf 1023,1 hPa 0,0 l/m 0,00 h 0,00 h 0 W/m 1,9 km/h (1 Bft) 95,94 %
13.10.2017 06:00 11,2 C 11,4 C 10,4 C 95 % 0 lf 1023,1 hPa 0,0 l/m 0,00 h 0,00 h 0 W/m 8,1 km/h (2 Bft) 96,32 %
13.10.2017 07:00 11,5 C 11,4 C 10,2 C 95 % 0 lf 1023,1 hPa 0,0 l/m 0,00 h 0,00 h 0 W/m 7,6 km/h (2 Bft) 96,89 %
13.10.2017 08:00 11,8 C 12,2 C 11,1 C 96 % 0 lf 1023,3 hPa 0,0 l/m 0,00 h 0,00 h 27 W/m 5,7 km/h (1 Bft) 96,80 %
13.10.2017 09:00 13,0 C 16,5 C 12,7 C 97 % 0 lf 1023,6 hPa 0,0 l/m 0,63 h 0,00 h 141 W/m 6,5 km/h (2 Bft) 96,38 %
13.10.2017 10:00 15,1 C 16,6 C 15,1 C 97 % 0 lf 1024,0 hPa 0,0 l/m 0,00 h 0,00 h 92 W/m 12,7 km/h (3 Bft) 96,02 %
13.10.2017 11:00 16,2 C 19,7 C 16,9 C 95 % 0 lf 1024,1 hPa 0,0 l/m 0,33 h 0,00 h 221 W/m 11,7 km/h (2 Bft) 96,81 %
13.10.2017 12:00 17,9 C 21,8 C 18,7 C 90 % 0 lf 1024,1 hPa 0,0 l/m 0,23 h 0,00 h 244 W/m 13,8 km/h (3 Bft) 97,31 %
13.10.2017 13:00 18,7 C 21,3 C 18,1 C 84 % 0 lf 1024,0 hPa 0,0 l/m 0,30 h 0,00 h 241 W/m 19,5 km/h (3 Bft) 95,23 %
13.10.2017 14:00 19,3 C 21,7 C 18,7 C 81 % 0 lf 1023,9 hPa 0,0 l/m 0,23 h 0,00 h 220 W/m 21,8 km/h (4 Bft) 97,86 %
13.10.2017 15:00 19,4 C 21,7 C 18,5 C 80 % 0 lf 1023,9 hPa 0,0 l/m 0,37 h 0,00 h 212 W/m 19,9 km/h (4 Bft) 96,01 %
13.10.2017 16:00 19,6 C 21,0 C 17,9 C 79 % 0 lf 1023,8 hPa 0,0 l/m 0,33 h 0,00 h 157 W/m 17,9 km/h (3 Bft) 94,45 %
13.10.2017 17:00 19,0 C 19,0 C 17,0 C 82 % 0 lf 1023,8 hPa 0,0 l/m 0,30 h 0,00 h 82 W/m 11,1 km/h (2 Bft) 99,50 %
13.10.2017 18:00 18,4 C 17,9 C 16,2 C 83 % 0 lf 1024,0 hPa 0,0 l/m 0,00 h 0,00 h 16 W/m 10,0 km/h (2 Bft) 94,48 %
13.10.2017 19:00 17,8 C 17,2 C 15,8 C 85 % 0 lf 1024,1 hPa 0,0 l/m 0,00 h 0,00 h 0 W/m 8,7 km/h (2 Bft) 97,08 %
13.10.2017 20:00 17,5 C 17,1 C 15,5 C 86 % 0 lf 1024,1 hPa 0,0 l/m 0,00 h 0,00 h 0 W/m 7,6 km/h (2 Bft) 97,65 %
13.10.2017 21:00 17,1 C 16,1 C 14,2 C 87 % 0 lf 1024,3 hPa 0,0 l/m 0,00 h 0,00 h 0 W/m 8,0 km/h (2 Bft) 95,59 %
13.10.2017 22:00 16,4 C 15,6 C 13,4 C 89 % 0 lf 1024,4 hPa 0,0 l/m 0,00 h 0,00 h 0 W/m 7,2 km/h (2 Bft) 96,86 %
13.10.2017 23:00 15,8 C 14,8 C 12,5 C 91 % 0 lf 1024,5 hPa 0,0 l/m 0,00 h 0,00 h 0 W/m 6,1 km/h (2 Bft) 97,15 %
14.10.2017 00:00 15,2 C 14,2 C 12,1 C 92 % 1 lf 1024,7 hPa 0,0 l/m 0,00 h 0,00 h 0 W/m 7,2 km/h (2 Bft) 94,55 %
14.10.2017 01:00 14,7 C 13,9 C 11,9 C 94 % 1 lf 1024,8 hPa 0,0 l/m 0,00 h 0,00 h 0 W/m 8,6 km/h (2 Bft) 98,86 %
14.10.2017 02:00 14,4 C 14,0 C 12,2 C 95 % 1 lf 1024,9 hPa 0,0 l/m 0,00 h 0,00 h 0 W/m 8,6 km/h (2 Bft) 95,59 %
14.10.2017 03:00 14,7 C 14,5 C 13,0 C 96 % 0 lf 1024,8 hPa 0,0 l/m 0,00 h 0,00 h 0 W/m 8,9 km/h (2 Bft) 95,31 %
14.10.2017 04:00 14,9 C 14,9 C 13,4 C 96 % 0 lf 1024,7 hPa 0,0 l/m 0,00 h 0,00 h 0 W/m 10,7 km/h (2 Bft) 98,18 %
14.10.2017 05:00 14,7 C 14,1 C 12,6 C 95 % 0 lf 1024,8 hPa 0,0 l/m 0,00 h 0,00 h 0 W/m 10,9 km/h (2 Bft) 96,92 %
14.10.2017 06:00 14,2 C 13,5 C 12,0 C 95 % 1 lf 1024,9 hPa 0,0 l/m 0,00 h 0,00 h 0 W/m 9,7 km/h (2 Bft) 94,91 %
14.10.2017 07:00 13,8 C 13,0 C 11,3 C 95 % 2 lf 1025,0 hPa 0,0 l/m 0,00 h 0,00 h 6 W/m 7,1 km/h (2 Bft) 98,10 %
14.10.2017 08:00 13,6 C 13,3 C 11,5 C 96 % 1 lf 1025,4 hPa 0,0 l/m 0,50 h 0,00 h 41 W/m 7,3 km/h (2 Bft) 96,01 %
14.10.2017 09:00 14,1 C 17,5 C 12,9 C 97 % 0 lf 1026,0 hPa 0,0 l/m 1,00 h 0,00 h 170 W/m 5,9 km/h (2 Bft) 97,11 %
14.10.2017 10:00 16,6 C 25,5 C 17,9 C 95 % 0 lf 1026,0 hPa 0,0 l/m 1,00 h 0,00 h 307 W/m 10,6 km/h (2 Bft) 96,30 %
14.10.2017 11:00 19,4 C 29,0 C 17,6 C 84 % 0 lf 1026,1 hPa 0,0 l/m 1,00 h 0,00 h 409 W/m 12,1 km/h (2 Bft) 96,37 %
14.10.2017 12:00 21,2 C 29,5 C 21,7 C 78 % 0 lf 1025,9 hPa 0,0 l/m 1,00 h 0,00 h 472 W/m 13,6 km/h (3 Bft) 95,81 %
14.10.2017 13:00 22,1 C 30,0 C 20,1 C 74 % 0 lf 1025,3 hPa 0,0 l/m 1,00 h 0,00 h 483 W/m 17,3 km/h (3 Bft) 97,29 %
14.10.2017 14:00 23,0 C 30,0 C 20,6 C 71 % 0 lf 1025,0 hPa 0,0 l/m 1,00 h 0,00 h 448 W/m 15,2 km/h (3 Bft) 97,08 %
14.10.2017 15:00 23,3 C 29,0 C 21,2 C 70 % 0 lf 1024,7 hPa 0,0 l/m 0,97 h 0,00 h 355 W/m 14,3 km/h (3 Bft) 95,94 %
14.10.2017 16:00 22,9 C 26,6 C 20,0 C 70 % 0 lf 1024,4 hPa 0,0 l/m 1,00 h 0,00 h 240 W/m 14,4 km/h (3 Bft) 96,72 %
14.10.2017 17:00 22,0 C 21,6 C 18,6 C 72 % 0 lf 1024,4 hPa 0,0 l/m 0,53 h 0,00 h 89 W/m 10,1 km/h (2 Bft) 98,29 %
14.10.2017 18:00 20,7 C 18,6 C 15,3 C 77 % 0 lf 1024,6 hPa 0,0 l/m 0,00 h 0,00 h 14 W/m 2,5 km/h (1 Bft) 95,84 %
14.10.2017 19:00 18,7 C 16,5 C 13,4 C 83 % 0 lf 1024,8 hPa 0,0 l/m 0,00 h 0,00 h 0 W/m 2,9 km/h (1 Bft) 95,59 %
14.10.2017 20:00 16,9 C 14,7 C 12,5 C 87 % 1 lf 1025,0 hPa 0,0 l/m 0,00 h 0,00 h 0 W/m 0,6 km/h (0 Bft) 99,43 %
14.10.2017 21:00 15,7 C 14,2 C 12,0 C 90 % 3 lf 1025,0 hPa 0,0 l/m 0,00 h 0,00 h 0 W/m 1,3 km/h (1 Bft) 95,66 %
14.10.2017 22:00 14,7 C 13,1 C 11,3 C 92 % 7 lf 1025,1 hPa 0,0 l/m 0,00 h 0,00 h 0 W/m 0,4 km/h (0 Bft) 96,85 %
14.10.2017 23:00 14,2 C 13,3 C 11,4 C 94 % 14 lf 1024,7 hPa 0,0 l/m 0,00 h 0,00 h 0 W/m 5,3 km/h (1 Bft) 97,01 %
15.10.2017 00:00 13,9 C 12,8 C 10,7 C 95 % 15 lf 1024,4 hPa 0,0 l/m 0,00 h 0,00 h 0 W/m 4,2 km/h (1 Bft) 96,52 %
15.10.2017 01:00 13,5 C 12,4 C 10,5 C 96 % 15 lf 1024,2 hPa 0,0 l/m 0,00 h 0,00 h 0 W/m 3,4 km/h (1 Bft) 97,15 %
15.10.2017 02:00 13,1 C 12,2 C 11,1 C 96 % 15 lf 1023,9 hPa 0,0 l/m 0,00 h 0,00 h 0 W/m 9,4 km/h (2 Bft) 96,15 %
15.10.2017 03:00 12,8 C 12,0 C 10,4 C 97 % 15 lf 1023,8 hPa 0,0 l/m 0,00 h 0,00 h 0 W/m 7,4 km/h (2 Bft) 95,72 %
15.10.2017 04:00 12,1 C 11,3 C 9,8 C 97 % 15 lf 1023,6 hPa 0,0 l/m 0,00 h 0,00 h 0 W/m 6,7 km/h (2 Bft) 98,25 %
15.10.2017 05:00 11,5 C 10,6 C 9,2 C 97 % 15 lf 1023,5 hPa 0,0 l/m 0,00 h 0,07 h 0 W/m 3,7 km/h (1 Bft) 97,27 %
15.10.2017 06:00 11,2 C 10,6 C 9,2 C 97 % 15 lf 1023,6 hPa 0,0 l/m 0,00 h 0,10 h 0 W/m 5,9 km/h (2 Bft) 94,41 %
15.10.2017 07:00 11,1 C 10,6 C 9,1 C 98 % 15 lf 1023,4 hPa 0,0 l/m 0,00 h 0,07 h 4 W/m 7,6 km/h (2 Bft) 97,48 %
15.10.2017 08:00 11,2 C 10,8 C 9,6 C 98 % 15 lf 1023,3 hPa 0,2 l/m 0,67 h 0,03 h 41 W/m 11,2 km/h (2 Bft) 96,24 %
15.10.2017 09:00 11,9 C 13,7 C 10,6 C 99 % 15 lf 1023,4 hPa 0,0 l/m 1,00 h 0,03 h 162 W/m 10,3 km/h (2 Bft) 95,73 %
15.10.2017 10:00 14,0 C 21,0 C 13,2 C 99 % 13 lf 1023,2 hPa 0,0 l/m 1,00 h 0,00 h 306 W/m 14,5 km/h (3 Bft) 97,65 %
15.10.2017 11:00 16,7 C 22,7 C 15,4 C 93 % 0 lf 1022,7 hPa 0,0 l/m 1,00 h 0,00 h 400 W/m 17,9 km/h (3 Bft) 95,37 %
15.10.2017 12:00 19,2 C 24,7 C 19,7 C 81 % 0 lf 1022,3 hPa 0,0 l/m 1,00 h 0,00 h 458 W/m 18,6 km/h (3 Bft) 96,08 %
15.10.2017 13:00 21,1 C 26,9 C 19,4 C 76 % 0 lf 1021,7 hPa 0,0 l/m 1,00 h 0,00 h 472 W/m 18,1 km/h (3 Bft) 97,43 %
15.10.2017 14:00 22,4 C 27,8 C 20,1 C 72 % 0 lf 1021,1 hPa 0,0 l/m 1,00 h 0,00 h 438 W/m 18,5 km/h (3 Bft) 95,92 %
15.10.2017 15:00 23,5 C 28,2 C 21,5 C 70 % 0 lf 1020,5 hPa 0,0 l/m 1,00 h 0,00 h 361 W/m 16,4 km/h (3 Bft) 96,08 %
15.10.2017 16:00 23,7 C 26,7 C 20,7 C 69 % 0 lf 1020,1 hPa 0,0 l/m 1,00 h 0,00 h 233 W/m 14,8 km/h (3 Bft) 98,00 %
15.10.2017 17:00 22,9 C 22,2 C 18,8 C 72 % 0 lf 1019,8 hPa 0,0 l/m 0,47 h 0,00 h 84 W/m 10,5 km/h (2 Bft) 96,79 %
15.10.2017 18:00 21,2 C 19,8 C 16,2 C 77 % 0 lf 1019,8 hPa 0,0 l/m 0,00 h 0,00 h 15 W/m 8,6 km/h (2 Bft) 94,69 %
15.10.2017 19:00 19,4 C 18,0 C 14,6 C 81 % 0 lf 1020,0 hPa 0,0 l/m 0,00 h 0,00 h 0 W/m 8,0 km/h (2 Bft) 97,15 %
15.10.2017 20:00 17,9 C 16,1 C 12,5 C 84 % 0 lf 1020,3 hPa 0,0 l/m 0,00 h 0,00 h 0 W/m 5,6 km/h (1 Bft) 96,58 %
15.10.2017 21:00 16,3 C 15,3 C 12,4 C 87 % 0 lf 1020,5 hPa 0,0 l/m 0,00 h 0,00 h 0 W/m 7,5 km/h (2 Bft) 97,36 %
15.10.2017 22:00 15,2 C 14,0 C 11,1 C 88 % 0 lf 1020,8 hPa 0,0 l/m 0,00 h 0,00 h 0 W/m 5,5 km/h (1 Bft) 94,31 %
15.10.2017 23:00 14,3 C 13,2 C 10,7 C 90 % 0 lf 1021,1 hPa 0,0 l/m 0,00 h 0,00 h 0 W/m 6,4 km/h (2 Bft) 96,58 %
Min-Datum _ 09.10.17 09.10.17 09.10.17 12.10.17 09.10.17 12.10.17 - - - - 09.10.17 11.10.17
_ Min-Zeit 06:38 02:36 02:26 16:16 05:22 02:48 - - - - 00:32 00:02
Minimum _ 8,9 C 8,3 C 7,8 C 65 % 0 lf 1012,5 hPa - - - - 0,0 km/h (0 Bft) 18,18 %
Max-Datum _ 15.10.17 14.10.17 14.10.17 09.10.17 09.10.17 14.10.17 09.10.17 12.10.17 10.10.17 10.10.17 12.10.17 09.10.17
_ Max-Zeit 16:04 13:00 12:18 13:32 08:54 10:56 09:00 12:10 06:10 13:44 03:34 00:50
Maximum _ 23,9 C 32,8 C 23,9 C 99 % 15 lf 1026,2 hPa 1,6 l/m 0,07 h 0,07 h 743 W/m 50,2 km/h
W-SW (7 Bft)
100,00 %
Durchschnitt _ 14,8 C 15,3 C 13,1 C 88 % 2 lf 1019,7 hPa #2,4 l/m #32:30 h #3:38 h 154 W/m 12,7 km/h (3 Bft) 96,52 %
© 2017 W. Hausmann